273  
NZUS93 KARX 250810  
HRRWXR  
 
CURRENT HOURLY OBSERVATIONS ACROSS  
MUCH OF THE UPPER MISSISSIPPI VALLEY  
NATIONAL WEATHER SERVICE LA CROSSE WI  
200 AM CST SUN FEB 25 2024  
 
   
..SOUTHEAST MINNESOTA
 
 
 
CITY SKY/WX TMP DP RH WIND PRES REMARKS  
ROCHESTER PTCLDY 35 26 69 SW18 29.62F WCI 24  
WINONA PTCLDY 39 23 52 SW7 29.66S WCI 34  
AUSTIN CLEAR 34 27 75 SW6 29.65F WCI 29  
ALBERT LEA CLEAR 36 28 75 SW7 29.65S WCI 30  
DODGE CENTER CLEAR 34 27 75 SW13 29.63S WCI 25  
PRESTON MOCLDY 34 27 75 SW15G24 29.64F WCI 24  
OWATONNA CLEAR 36 28 75 SW9 29.62F WCI 29  
FARIBAULT NOT AVBL  

 
   
..ELSEWHERE IN MINNESOTA
 
 
 
CITY SKY/WX TMP DP RH WIND PRES REMARKS  
MINNEAPOLIS PTCLDY 39 28 64 W9 29.59S WCI 33  
INTNL FALLS PTCLDY 34 24 67 W8 29.48R WCI 27  
DULUTH PTCLDY 31 26 82 W9 29.51S WCI 23  
RED WING NOT AVBL  
REDWOOD FALLS CLEAR 39 28 64 SW13 29.62S WCI 31  
MANKATO CLEAR 38 28 67 W10 29.63F WCI 31  
WORTHINGTON PTCLDY 39 27 62 W13 29.69F WCI 31  
FAIRMONT PTCLDY 39 27 62 SW12 29.66F WCI 32  

 
   
..SOUTHWEST WISCONSIN
 
 
 
CITY SKY/WX TMP DP RH WIND PRES REMARKS  
LA CROSSE MOCLDY 35 21 56 S9 29.68F WCI 28  
PRAIRIE DU CHI MOCLDY 37 20 52 CALM 29.73F  
BOSCOBEL PTCLDY 35 20 54 SW7 29.74F WCI 29  
LONE ROCK PTCLDY 33 18 53 CALM 29.75F  
PLATTEVILLE CLEAR 30 6 36 S12 29.76F WCI 21  
FORT MC COY MOCLDY 35 20 54 S6 29.66F WCI 30  
CAMP DOUGLAS MOCLDY 37 18 46 S12G24 29.65F WCI 29  
MAUSTON-NEW LI MOCLDY 35 20 53 S17G23 29.68S WCI 25  
WIS DELLS PTCLDY 34 21 57 S14G20 29.70F WCI 25  

 
   
..ELSEWHERE IN WISCONSIN
 
 
 
CITY SKY/WX TMP DP RH WIND PRES REMARKS  
MILWAUKEE CLEAR 31 17 56 S9 29.81F WCI 23  
MADISON CLEAR 30 16 56 S10 29.76F WCI 21  
GREEN BAY CLEAR 31 17 56 S12 29.71F WCI 22  
EAU CLAIRE CLEAR 36 23 59 S8 29.59F WCI 30  
BLACK RVR FLS MOCLDY 36 22 58 CALM 29.65F  
MEDFORD MOCLDY 30 15 53 S8 29.60F WCI 23  
WAUSAU MOCLDY 29 17 61 S8 29.62F WCI 21  
WIS RAPIDS MOCLDY 32 17 54 S9 29.67F WCI 24  
MARSHFIELD MOCLDY 30 19 63 S8 29.63F WCI 22  
RICE LAKE PTCLDY 33 23 66 SE5 29.58F WCI 29  

 
   
..NORTHEAST IOWA
 
 
 
CITY SKY/WX TMP DP RH WIND PRES REMARKS  
WATERLOO CLEAR 34 24 67 S8 29.72F WCI 27  
DUBUQUE CLEAR 30 19 63 S14 29.75F WCI 19  
DECORAH NOT AVBL  
MASON CITY PTCLDY 37 26 64 SW13 29.68F WCI 29  
CHARLES CITY PTCLDY 32 30 93 S8 29.69F WCI 25  
OELWEIN CLEAR 28 21 74 S9 29.73S WCI 20  

 
   
..ELSEWHERE IN IOWA
 
 
 
CITY SKY/WX TMP DP RH WIND PRES REMARKS  
DES MOINES CLEAR 41 29 62 S7 29.76F  
IOWA CITY CLEAR 31 20 63 SE3 29.81F  
FORT DODGE CLEAR 33 26 75 S9 29.71F WCI 25  
MARSHALLTOWN CLEAR 38 27 64 S8 29.73F WCI 32  
CEDAR RAPIDS CLEAR 32 21 64 S12 29.76F WCI 23  

 
   
..NORTHERN ILLINOIS
 
 
 
CITY SKY/WX TMP DP RH WIND PRES REMARKS  
CHICAGO-OHARE CLEAR 32 19 58 S12G21 29.88F WCI 23  
CHICAGO-MIDWAY CLEAR 33 19 56 S12G22 29.91F WCI 24  
MOLINE CLEAR 35 19 52 S6 29.81F WCI 30  
ROCKFORD CLEAR 31 17 56 S12 29.85F WCI 22  
PEORIA CLEAR 34 18 52 S14 29.89F WCI 25  

 
 
NOTE: "FAIR" INDICATES FEW OR NO CLOUDS BELOW 12,000 FEET WITH NO  
SIGNIFICANT WEATHER AND/OR OBSTRUCTIONS TO VISIBILITY. WIND  
SPEEDS ARE IN MILES-PER-HOUR.  
 
 
CLICK HERE TO GO TO PREVIOUS BULLETINS.

The Nexlab WI Page
The Nexlab IA Page
The Nexlab MN Page Main Text Page